This is the latest recevied weather packets stored in our database for station/object KE0QIB. If no packets are shown the sender has not sent any weather packets the latest 10 day(s).
| Time | Temp. | Humidity | Pressure | Rain* | Wind** | Luminosity | Snow |
|---|---|---|---|---|---|---|---|
| 1777648025 | 7.78° C | 50% | 1005.2 hPa | 0 mm | - | - | - |
| 1777647725 | 7.78° C | 52% | 1005.2 hPa | 0 mm | - | - | - |
| 1777647425 | 7.22° C | 49% | 1005.2 hPa | 0 mm | - | - | - |
| 1777647125 | 7.22° C | 51% | 1005 hPa | 0 mm | - | - | - |
| 1777646825 | 7.22° C | 53% | 1005 hPa | 0 mm | - | - | - |
| 1777646525 | 7.22° C | 52% | 1005 hPa | 0 mm | - | - | - |
| 1777646225 | 6.67° C | 51% | 1005.2 hPa | 0 mm | - | - | - |
| 1777645925 | 6.67° C | 51% | 1005.2 hPa | 0 mm | - | - | - |
| 1777645625 | 6.67° C | 53% | 1005.2 hPa | 0 mm | - | - | - |
| 1777645325 | 6.67° C | 53% | 1004.7 hPa | 0 mm | - | - | - |
| 1777645025 | 6.67° C | 53% | 1004.7 hPa | 0 mm | - | - | - |
| 1777644725 | 6.67° C | 51% | 1004.7 hPa | 0 mm | - | - | - |
| 1777644425 | 6.67° C | 51% | 1004.7 hPa | 0 mm | - | - | - |
| 1777644125 | 6.11° C | 53% | 1004.7 hPa | 0 mm | - | - | - |
| 1777643825 | 6.11° C | 52% | 1004.7 hPa | 0 mm | - | - | - |
| 1777643525 | 6.11° C | 52% | 1004.9 hPa | 0 mm | - | - | - |
| 1777643225 | 6.11° C | 53% | 1004.9 hPa | 0 mm | - | - | - |
| 1777642925 | 5.56° C | 54% | 1004.9 hPa | 0 mm | - | - | - |
| 1777642625 | 5.56° C | 56% | 1004.9 hPa | 0 mm | - | - | - |
| 1777642325 | 5° C | 53% | 1004.9 hPa | 0 mm | - | - | - |
| 1777642025 | 5° C | 54% | 1004.9 hPa | 0 mm | - | - | - |
| 1777641725 | 5° C | 57% | 1004.4 hPa | 0 mm | - | - | - |
| 1777641425 | 4.44° C | 55% | 1004.4 hPa | 0 mm | - | - | - |
| 1777641125 | 4.44° C | 56% | 1004.4 hPa | 0 mm | - | - | - |
| 1777640825 | 4.44° C | 56% | 1004 hPa | 0 mm | - | - | - |
* Rain latest hour (hover to see other rain measurements)
** Current wind speed in m/s (hover to see current wind gust speed)